GW1083 Weather Reports


time (UTC)temp
C
wind
direction
speed
KPH
gust
KPH
rain 1hr
cm
rain 24hr
cm
rain mn
cm
humidity
%
barometer
mb
20260505151519 22 198 0.0 321.9 0.00 0.00 0.00 60 677.8
20260505150512 21 185 0.0 321.9 0.00 0.00 0.00 61 664.1
20260505124854 18 260 0.0 321.9 0.00 0.00 0.00 61 810.0
20260505124353 18 234 0.0 321.9 0.00 0.00 0.00 60 760.2
20260505123336 18 228 0.0 321.9 0.00 0.00 0.00 62 799.8
20260505121823 17 188 0.0 321.9 0.00 0.00 0.00 64 759.8
20260505120816 17 232 0.0 321.9 0.00 0.00 0.00 64 768.1
20260505115305 16 202 0.0 321.9 0.00 0.00 0.00 67 776.2
20260505114803 16 202 0.0 321.9 0.00 0.00 0.00 67 783.0
20260505114302 16 205 0.0 321.9 0.00 0.00 0.00 67 792.2
20260505113802 16 208 0.0 321.9 0.00 0.00 0.00 69 767.3
20260505112745 16 182 0.0 321.9 0.00 0.00 0.00 69 736.1
20260505112244 15 200 0.0 321.9 0.00 0.00 0.00 71 755.8
20260505110730 15 162 0.0 321.9 0.00 0.00 0.00 75 656.6
20260505110229 15 146 0.0 321.9 0.00 0.00 0.00 73 683.0
20260505102157 14 204 0.0 321.9 0.00 0.00 0.00 75 719.5
20260505101655 14 186 0.0 321.9 0.00 0.00 0.00 75 705.0
20260505101154 14 185 0.0 321.9 0.00 0.00 0.00 75 700.5
20260505100653 14 185 0.0 321.9 0.00 0.00 0.00 76 700.6
20260505095130 15 185 0.0 321.9 0.00 0.00 0.00 73 699.4
20260505094629 15 185 0.0 321.9 0.00 0.00 0.00 73 697.9
20260505094128 15 185 0.0 321.9 0.00 0.00 0.00 73 694.4
20260505093627 15 185 0.0 321.9 0.00 0.00 0.00 73 687.6
20260505091559 15 173 0.0 321.9 0.00 0.00 0.00 73 673.2
20260505091058 15 158 0.0 321.9 0.00 0.00 0.00 73 668.5
20260505090051 15 153 0.0 321.9 0.00 0.00 0.00 74 673.4
20260505085550 15 179 0.0 321.9 0.00 0.00 0.00 72 696.7
20260505085049 15 185 0.0 321.9 0.00 0.00 0.00 72 718.4
20260505084032 15 186 0.0 321.9 0.00 0.00 0.00 72 733.3
20260505083531 15 205 0.0 321.9 0.00 0.00 0.00 73 751.9
20260505083030 15 204 0.0 321.9 0.00 0.00 0.00 73 746.1
20260505082529 15 215 0.0 321.9 0.00 0.00 0.00 73 741.2
20260505082028 16 195 0.0 321.9 0.00 0.00 0.00 74 726.5
20260505081527 16 195 0.0 321.9 0.00 0.00 0.00 75 743.0
20260505081027 16 199 0.0 321.9 0.00 0.00 0.00 76 731.9
20260505080526 16 191 0.0 321.9 0.00 0.00 0.00 77 731.0
20260505080026 16 191 0.0 321.9 0.00 0.00 0.00 77 741.6
20260505075525 16 186 0.0 321.9 0.00 0.00 0.00 77 764.8
20260505075024 16 251 0.0 321.9 0.00 0.00 0.00 78 801.5
20260505074523 16 186 0.0 321.9 0.00 0.00 0.00 78 705.7
20260505074023 16 184 0.0 321.9 0.00 0.00 0.00 78 708.4
20260505073522 16 198 0.0 321.9 0.00 0.00 0.00 77 698.1
20260505073022 16 165 0.0 321.9 0.00 0.00 0.00 78 672.4
20260505072521 16 193 0.0 321.9 0.00 0.00 0.00 78 683.0
20260505072019 16 174 0.0 321.9 0.00 0.00 0.00 79 640.9
20260505071004 16 115 0.0 321.9 0.00 0.00 0.00 79 603.0
20260505070503 16 163 0.0 321.9 0.00 0.00 0.00 78 669.1
20260505070002 16 184 0.0 321.9 0.00 0.00 0.00 78 676.5
20260505065501 16 170 0.0 321.9 0.00 0.00 0.00 78 674.0
20260505064959 16 172 0.0 321.9 0.00 0.00 0.00 77 681.8
20260505063942 16 185 0.0 321.9 0.00 0.00 0.00 80 670.6
20260505063441 16 178 0.0 321.9 0.00 0.00 0.00 82 681.3
20260505062940 16 198 0.0 321.9 0.00 0.00 0.00 82 709.9
20260505062439 16 186 0.0 321.9 0.00 0.00 0.00 82 723.6
20260505061938 16 203 0.0 321.9 0.00 0.00 0.00 82 753.3
20260505061437 16 203 0.0 321.9 0.00 0.00 0.00 82 751.8
20260505060936 16 203 0.0 321.9 0.00 0.00 0.00 81 747.6
20260505055423 16 202 0.0 321.9 0.00 0.00 0.00 82 662.1
20260505054416 16 144 0.0 321.9 0.00 0.00 0.00 81 584.6
20260505053915 16 144 0.0 321.9 0.00 0.00 0.00 81 588.0
20260505052908 16 149 0.0 321.9 0.00 0.00 0.00 81 607.8
20260505052408 16 151 0.0 321.9 0.00 0.00 0.00 80 617.4
20260505051908 16 151 0.0 321.9 0.00 0.00 0.00 80 633.0
20260505051407 16 151 0.0 321.9 0.00 0.00 0.00 80 666.1
20260505050351 16 189 0.0 321.9 0.00 0.00 0.00 79 714.4
20260505041312 17 199 0.0 321.9 0.00 0.00 0.00 76 690.6
20260505040812 17 198 0.0 321.9 0.00 0.00 0.00 75 678.3
20260505040312 17 181 0.0 321.9 0.00 0.00 0.00 75 665.5
20260505035812 17 185 0.0 321.9 0.00 0.00 0.00 75 647.9
20260505035311 17 171 0.0 321.9 0.00 0.00 0.00 74 607.6
20260505034811 17 130 0.0 321.9 0.00 0.00 0.00 74 559.7
20260505034311 17 124 0.0 321.9 0.00 0.00 0.00 73 567.4
20260505033811 18 182 0.0 321.9 0.00 0.00 0.00 72 642.7
20260505033309 18 176 0.0 321.9 0.00 0.00 0.00 71 626.1
20260505032808 18 144 0.0 321.9 0.00 0.00 0.00 70 574.2
20260505032307 18 170 0.0 321.9 0.00 0.00 0.00 69 644.2
20260505031806 18 158 0.0 321.9 0.00 0.00 0.00 68 644.3
20260505031306 18 141 0.0 321.9 0.00 0.00 0.00 68 643.3
20260505030805 18 158 0.0 321.9 0.00 0.00 0.00 67 681.5
20260505030305 18 217 0.0 321.9 0.00 0.00 0.00 66 727.5
20260505025804 18 191 0.0 321.9 0.00 0.00 0.00 66 685.6
20260505023735 18 129 0.0 321.9 0.00 0.00 0.00 64 638.3
20260505023234 18 8 0.0 321.9 0.00 0.00 0.00 63 698.9
20260505022733 18 158 0.0 321.9 0.00 0.00 0.00 63 641.2
20260505022232 18 180 0.0 321.9 0.00 0.00 0.00 62 665.3
20260505021215 18 159 0.0 321.9 0.00 0.00 0.00 61 663.5
20260505020714 18 181 0.0 321.9 0.00 0.00 0.00 61 691.5
20260505020213 18 191 0.0 321.9 0.00 0.00 0.00 61 698.1
20260505015207 18 161 0.0 321.9 0.00 0.00 0.00 61 629.7
20260505014151 18 172 0.0 321.9 0.00 0.00 0.00 62 654.3
20260505013650 18 172 0.0 321.9 0.00 0.00 0.00 62 634.7
20260505013149 18 156 0.0 321.9 0.00 0.00 0.00 62 656.5
20260505012648 18 178 0.0 321.9 0.00 0.00 0.00 62 671.3
20260505012147 18 164 0.0 321.9 0.00 0.00 0.00 61 656.9
20260505011646 19 196 0.0 321.9 0.00 0.00 0.00 61 687.5
20260505011145 19 170 0.0 321.9 0.00 0.00 0.00 61 640.8
20260505010643 19 172 0.0 321.9 0.00 0.00 0.00 60 635.6
20260505005636 19 183 0.0 321.9 0.00 0.00 0.00 59 628.2
20260505005136 19 149 0.0 321.9 0.00 0.00 0.00 59 619.8
20260505004635 19 126 0.0 321.9 0.00 0.00 0.00 58 639.4
20260505004134 20 157 0.0 321.9 0.00 0.00 0.00 57 653.1
20260505003633 20 163 0.0 321.9 0.00 0.00 0.00 56 681.7
20260505003131 20 182 0.0 321.9 0.00 0.00 0.00 56 689.4
20260505002631 20 164 0.0 321.9 0.00 0.00 0.00 55 680.0
20260505002130 20 168 0.0 321.9 0.00 0.00 0.00 55 672.2
20260505001128 20 183 0.0 321.9 0.00 0.00 0.00 54 672.0
20260505000628 20 151 0.0 321.9 0.00 0.00 0.00 53 648.1
20260505000126 20 156 0.0 321.9 0.00 0.00 0.00 53 669.1
20260504235119 20 143 0.0 321.9 0.00 0.00 0.00 52 651.5
20260504233607 20 164 0.0 321.9 0.00 0.00 0.00 51 654.9
20260504233106 21 178 0.0 321.9 0.00 0.00 0.00 51 673.8
20260504232605 21 162 0.0 321.9 0.00 0.00 0.00 50 657.8
20260504232105 21 148 0.0 321.9 0.00 0.00 0.00 50 684.6
20260504231604 21 181 0.0 321.9 0.00 0.00 0.00 50 681.3
20260504231104 21 169 0.0 321.9 0.00 0.00 0.00 49 671.3
20260504230603 21 217 0.0 321.9 0.00 0.00 0.00 48 693.4
20260504225601 21 180 0.0 321.9 0.00 0.00 0.00 48 654.2
20260504225100 21 212 0.0 321.9 0.00 0.00 0.00 47 642.6
20260504224043 21 192 0.0 321.9 0.00 0.00 0.00 49 665.5
20260504223542 21 173 0.0 321.9 0.00 0.00 0.00 49 637.7
20260504221503 21 190 0.0 321.9 0.00 0.00 0.00 50 637.0
20260504221003 21 168 0.0 321.9 0.00 0.00 0.00 50 606.4
20260504220502 21 126 0.0 321.9 0.00 0.00 0.00 51 588.8
20260504220002 21 119 0.0 321.9 0.00 0.00 0.00 50 591.8
20260504214955 21 129 0.0 321.9 0.00 0.00 0.00 50 566.9
20260504214454 21 158 0.0 321.9 0.00 0.00 0.00 52 588.5
20260504213954 21 151 0.0 321.9 0.00 0.00 0.00 52 583.8
20260504213453 21 158 0.0 321.9 0.00 0.00 0.00 52 566.2
20260504212952 21 55 0.0 321.9 0.00 0.00 0.00 51 569.6
20260504212451 21 134 0.0 321.9 0.00 0.00 0.00 51 543.0
20260504211951 21 155 0.0 321.9 0.00 0.00 0.00 49 552.3
20260504210935 22 62 0.0 321.9 0.00 0.00 0.00 50 492.2
20260504210434 22 101 0.0 321.9 0.00 0.00 0.00 49 561.5
20260504205933 22 129 0.0 321.9 0.00 0.00 0.00 50 565.4
20260504205432 22 125 0.0 321.9 0.00 0.00 0.00 49 531.8
20260504204931 22 135 0.0 321.9 0.00 0.00 0.00 48 578.8
20260504204430 22 142 0.0 321.9 0.00 0.00 0.00 48 619.8
20260504203413 22 183 0.0 321.9 0.00 0.00 0.00 46 639.9
20260504202912 22 103 0.0 321.9 0.00 0.00 0.00 45 579.1
20260504202411 22 195 0.0 321.9 0.00 0.00 0.00 45 618.3
20260504201910 22 97 0.0 321.9 0.00 0.00 0.00 44 527.3
20260504200854 22 126 0.0 321.9 0.00 0.00 0.00 45 586.3
20260504195331 22 123 0.0 321.9 0.00 0.00 0.00 43 520.0
20260504194314 22 110 0.0 321.9 0.00 0.00 0.00 44 497.4
20260504193814 22 120 0.0 321.9 0.00 0.00 0.00 42 530.3
20260504193313 22 109 0.0 321.9 0.00 0.00 0.00 41 551.1
20260504192812 23 157 0.0 321.9 0.00 0.00 0.00 45 603.2
20260504192311 22 156 0.0 321.9 0.00 0.00 0.00 43 573.2
20260504191811 22 88 0.0 321.9 0.00 0.00 0.00 42 562.3
20260504190754 22 110 0.0 321.9 0.00 0.00 0.00 42 568.6
20260504190253 22 194 0.0 321.9 0.00 0.00 0.00 45 634.5
20260504185752 22 150 0.0 321.9 0.00 0.00 0.00 42 563.8
20260504185251 21 83 0.0 321.9 0.00 0.00 0.00 42 500.4
20260504184750 21 125 0.0 321.9 0.00 0.00 0.00 42 502.3
20260504184249 21 93 0.0 321.9 0.00 0.00 0.00 41 475.8
20260504183748 21 106 0.0 321.9 0.00 0.00 0.00 41 529.2
20260504183247 21 123 0.0 321.9 0.00 0.00 0.00 44 500.8
20260504182745 21 96 0.0 321.9 0.00 0.00 0.00 44 473.8
20260504182244 21 95 0.0 321.9 0.00 0.00 0.00 44 511.4
20260504181237 21 95 0.0 321.9 0.00 0.00 0.00 43 512.1
20260504180220 21 133 0.0 321.9 0.00 0.00 0.00 42 516.4
20260504175719 21 115 0.0 321.9 0.00 0.00 0.00 43 491.2
20260504175218 21 110 0.0 321.9 0.00 0.00 0.00 40 484.5
20260504174717 21 100 0.0 321.9 0.00 0.00 0.00 41 467.6
20260504174216 21 101 0.0 321.9 0.00 0.00 0.00 42 497.0
20260504173715 21 111 0.0 321.9 0.00 0.00 0.00 43 532.0
20260504173214 21 108 0.0 321.9 0.00 0.00 0.00 43 528.8
20260504172714 21 146 0.0 321.9 0.00 0.00 0.00 42 555.8
20260504171707 21 96 0.0 321.9 0.00 0.00 0.00 42 507.7
20260504171207 21 146 0.0 321.9 0.00 0.00 0.00 40 574.0
20260504170705 21 93 0.0 321.9 0.00 0.00 0.00 46 503.4
20260504170204 20 110 0.0 321.9 0.00 0.00 0.00 47 467.6